, MT

(GMT )
West Yellowstone

Weather History for KWYS - June, 2013

Change the Weather History Date:

Tuesday, June 4, 2013

  Actual Average Record
Temperature  
Mean Temperature 42 °F -  
Max Temperature 53 °F 65 °F 80 °F (2017)
Min Temperature 32 °F 35 °F 19 °F (2011)
Degree Days  
Heating Degree Days 22    
Moisture  
Dew Point 41 °F    
Average Humidity 85    
Maximum Humidity 93    
Minimum Humidity 80    
Precipitation  
Precipitation 0.00 in - - ()
Sea Level Pressure  
Sea Level Pressure 30.18 in    
Wind  
Wind Speed 4 mph (NNE)    
Max Wind Speed 16 mph    
Max Gust Speed 22 mph    
Visibility 10 miles    
Events      
Averages and records for this station are not official NWS values.
T = Trace of Precipitation, MM = Missing Value Source: NWS Daily Summary

Daily Weather History Graph

Daily Weather History Graph

Search for Another Location

Airport or City:

Trip Planner

Search our weather history database for the weather conditions in past years. The results will help you decide how hot, cold, wet, or windy it might be!

Date:

Astronomy

Jun. 04, 2013 Rise Set
Actual Time 5:40 AM MDT 9:05 PM MDT
Civil Twilight 5:04 AM MDT 9:41 PM MDT
Nautical Twilight 4:16 AM MDT 10:29 PM MDT
Astronomical Twilight 3:16 AM MDT 11:30 PM MDT
Moon 3:20 AM MDT (6/4) 5:31 PM MDT (6/4)
Length of Visible Light 16h 37m
Length of Day
15h 24m
Waning Crescent, 14% of the Moon is Illuminated
Jun 4
Waning Crescent
Jun 8
New
Jun 16
First Quarter
Jun 23
Full
Jun 29
Last Quarter

Hourly Weather History & Observations

Time (MDT) Temp. Windchill Dew Point Humidity Pressure Visibility Wind Dir Wind Speed Gust Speed Precip Events Conditions
12:10 AM 37.4 °F - 32.0 °F 81% 30.10 in 10.0 mi Calm Calm - N/A   Overcast
12:30 AM 37.4 °F 33.8 °F 32.0 °F 81% 30.11 in 10.0 mi NNW 4.6 mph - N/A   Overcast
12:50 AM 39.2 °F 35.9 °F 33.8 °F 81% 30.11 in 10.0 mi NW 4.6 mph - N/A   Overcast
1:10 AM 39.2 °F 35.0 °F 35.6 °F 87% 30.11 in 10.0 mi NNE 5.8 mph - N/A   Overcast
1:30 AM 41.0 °F 37.1 °F 37.4 °F 87% 30.11 in 10.0 mi NNE 5.8 mph - N/A   Overcast
1:50 AM 39.2 °F - 35.6 °F 87% 30.11 in 10.0 mi Calm Calm - N/A   Overcast
2:10 AM 39.2 °F - 35.6 °F 87% 30.11 in 10.0 mi Calm Calm - N/A   Overcast
2:30 AM 39.2 °F - 35.6 °F 87% 30.11 in 10.0 mi Calm Calm - N/A   Overcast
2:50 AM 37.4 °F - 35.6 °F 93% 30.11 in 10.0 mi Calm Calm - N/A   Overcast
3:10 AM 39.2 °F 37.0 °F 35.6 °F 87% 30.11 in 10.0 mi North 3.5 mph - N/A   Overcast
3:30 AM 39.2 °F 35.9 °F 33.8 °F 81% 30.12 in 10.0 mi North 4.6 mph - N/A   Overcast
3:50 AM 39.2 °F 37.0 °F 35.6 °F 87% 30.12 in 10.0 mi North 3.5 mph - N/A   Overcast
4:10 AM 39.2 °F 37.0 °F 33.8 °F 81% 30.12 in 10.0 mi North 3.5 mph - N/A   Overcast
4:30 AM 37.4 °F 34.9 °F 33.8 °F 87% 30.12 in 10.0 mi NNE 3.5 mph - N/A   Overcast
4:50 AM 37.4 °F 33.8 °F 33.8 °F 87% 30.13 in 10.0 mi North 4.6 mph - N/A   Overcast
5:10 AM 37.4 °F 32.8 °F 32.0 °F 81% 30.13 in 10.0 mi NNW 5.8 mph - N/A   Overcast
5:30 AM 37.4 °F 32.8 °F 33.8 °F 87% 30.13 in 10.0 mi NNW 5.8 mph - N/A   Overcast
5:50 AM 37.4 °F 32.8 °F 32.0 °F 81% 30.14 in 10.0 mi North 5.8 mph - N/A   Overcast
6:10 AM 37.4 °F 34.9 °F 32.0 °F 81% 30.14 in 10.0 mi North 3.5 mph - N/A   Overcast
6:30 AM 39.2 °F 35.9 °F 35.6 °F 87% 30.15 in 10.0 mi North 4.6 mph - N/A   Overcast
6:50 AM 39.2 °F 35.9 °F 35.6 °F 87% 30.15 in 10.0 mi North 4.6 mph - N/A   Overcast
7:10 AM 39.2 °F 35.9 °F 35.6 °F 87% 30.15 in 10.0 mi North 4.6 mph - N/A   Scattered Clouds
7:30 AM 41.0 °F 38.0 °F 37.4 °F 87% 30.16 in 10.0 mi North 4.6 mph - N/A   Clear
7:50 AM 41.0 °F 38.0 °F 37.4 °F 87% 30.16 in 10.0 mi NNE 4.6 mph - N/A   Clear
8:10 AM 42.8 °F 40.1 °F 39.2 °F 87% 30.16 in 10.0 mi NE 4.6 mph - N/A   Clear
8:30 AM 44.6 °F 43.1 °F 39.2 °F 81% 30.16 in 10.0 mi NE 3.5 mph - N/A   Clear
8:50 AM 44.6 °F 40.7 °F 41.0 °F 87% 30.16 in 10.0 mi NE 6.9 mph - N/A   Clear
9:10 AM 46.4 °F 44.3 °F 41.0 °F 81% 30.16 in 10.0 mi NE 4.6 mph - N/A   Partly Cloudy
9:30 AM 46.4 °F 43.5 °F 42.8 °F 87% 30.17 in 10.0 mi NE 5.8 mph - N/A   Mostly Cloudy
9:50 AM 46.4 °F 45.2 °F 41.0 °F 81% 30.17 in 10.0 mi NNW 3.5 mph - N/A   Mostly Cloudy
10:10 AM 46.4 °F 44.3 °F 41.0 °F 81% 30.17 in 10.0 mi NNE 4.6 mph - N/A   Overcast
10:35 AM 46.4 °F 45.2 °F 42.8 °F 87% 30.17 in 10.0 mi ESE 3.5 mph - N/A   Overcast
10:50 AM 46.4 °F - 41.0 °F 81% 30.17 in 10.0 mi Calm Calm - N/A   Overcast
11:10 AM 48.2 °F - 44.6 °F 87% 30.17 in 10.0 mi Calm Calm - N/A   Mostly Cloudy
11:30 AM 48.2 °F - 44.6 °F 87% 30.17 in 10.0 mi NNE 6.9 mph - N/A   Scattered Clouds
11:50 AM 50.0 °F - 46.4 °F 87% 30.17 in 10.0 mi NNE 5.8 mph - N/A   Mostly Cloudy
12:10 PM 50.0 °F - 46.4 °F 87% 30.17 in 10.0 mi NNE 4.6 mph - N/A   Overcast
12:30 PM 50.0 °F - 46.4 °F 87% 30.17 in 10.0 mi West 4.6 mph - N/A   Overcast
12:50 PM 51.8 °F - 46.4 °F 82% 30.17 in 10.0 mi NNW 8.1 mph - N/A   Overcast
1:10 PM 53.6 °F - 48.2 °F 82% 30.17 in 10.0 mi North 4.6 mph - N/A   Overcast
1:30 PM 51.8 °F - 46.4 °F 82% 30.18 in 10.0 mi NW 5.8 mph - N/A   Overcast
1:50 PM 51.8 °F - 46.4 °F 82% 30.18 in 10.0 mi Calm Calm - N/A   Overcast
2:10 PM 51.8 °F - 48.2 °F 88% 30.18 in 10.0 mi NE 16.1 mph - N/A   Overcast
2:30 PM 51.8 °F - 46.4 °F 82% 30.18 in 10.0 mi NE 11.5 mph 18.4 mph N/A   Overcast
2:50 PM 50.0 °F - 46.4 °F 87% 30.19 in 10.0 mi NE 9.2 mph - N/A   Overcast
3:10 PM 51.8 °F - 48.2 °F 88% 30.19 in 10.0 mi ENE 8.1 mph - N/A   Mostly Cloudy
3:30 PM 53.6 °F - 48.2 °F 82% 30.19 in 10.0 mi ENE 6.9 mph - N/A   Overcast
3:50 PM 53.6 °F - 48.2 °F 82% 30.20 in 10.0 mi NNE 8.1 mph - N/A   Overcast
4:10 PM 53.6 °F - 48.2 °F 82% 30.20 in 10.0 mi NNE 8.1 mph - N/A   Overcast
4:30 PM 51.8 °F - 48.2 °F 88% 30.20 in 10.0 mi ENE 8.1 mph - N/A   Overcast
4:50 PM 53.6 °F - 48.2 °F 82% 30.20 in 10.0 mi NE 3.5 mph - N/A   Overcast
5:10 PM 51.8 °F - 48.2 °F 88% 30.21 in 10.0 mi NE 10.4 mph - N/A   Overcast
5:30 PM 51.8 °F - 48.2 °F 88% 30.21 in 10.0 mi ENE 8.1 mph - N/A   Overcast
5:50 PM 51.8 °F - 48.2 °F 88% 30.21 in 10.0 mi NE 11.5 mph 17.3 mph N/A   Overcast
6:10 PM 51.8 °F - 48.2 °F 88% 30.21 in 10.0 mi ENE 8.1 mph - N/A   Mostly Cloudy
6:30 PM 53.6 °F - 48.2 °F 82% 30.21 in 10.0 mi NE 6.9 mph - N/A   Scattered Clouds
6:50 PM 53.6 °F - 48.2 °F 82% 30.21 in 10.0 mi SE 5.8 mph - N/A   Mostly Cloudy
7:10 PM 53.6 °F - 50.0 °F 88% 30.22 in 10.0 mi NW 5.8 mph 21.9 mph N/A   Overcast
7:30 PM 53.6 °F - 48.2 °F 82% 30.22 in 10.0 mi NNW 6.9 mph - N/A   Mostly Cloudy
7:50 PM 53.6 °F - 48.2 °F 82% 30.22 in 10.0 mi NNW 5.8 mph - N/A   Partly Cloudy
8:10 PM 51.8 °F - 48.2 °F 88% 30.22 in 10.0 mi North 4.6 mph - N/A   Clear
8:30 PM 50.0 °F - 46.4 °F 87% 30.23 in 10.0 mi North 3.5 mph - N/A   Clear
8:50 PM 48.2 °F - 44.6 °F 87% 30.23 in 10.0 mi NNE 4.6 mph - N/A   Clear
9:10 PM 46.4 °F 44.3 °F 41.0 °F 81% 30.23 in 10.0 mi NE 4.6 mph - N/A   Clear
9:30 PM 41.0 °F - 37.4 °F 87% 30.24 in 10.0 mi Calm Calm - N/A   Clear
9:50 PM 39.2 °F 37.0 °F 35.6 °F 87% 30.25 in 10.0 mi ENE 3.5 mph - N/A   Clear
10:10 PM 39.2 °F 35.0 °F 35.6 °F 87% 30.25 in 10.0 mi NE 5.8 mph - N/A   Clear
10:30 PM 41.0 °F 38.0 °F 35.6 °F 81% 30.26 in 10.0 mi NNE 4.6 mph - N/A   Clear
10:50 PM 39.2 °F 35.0 °F 35.6 °F 87% 30.26 in 10.0 mi NNE 5.8 mph - N/A   Clear
11:10 PM 37.4 °F 34.9 °F 33.8 °F 87% 30.26 in 10.0 mi NNE 3.5 mph - N/A   Clear
11:30 PM 32.0 °F - 28.4 °F 87% 30.26 in 10.0 mi Calm Calm - N/A   Clear
11:50 PM 32.0 °F - 26.6 °F 80% 30.26 in 10.0 mi Calm Calm - N/A   Clear